Weather Roundup
Issued by NWS Chicago, IL

Home | Current Version | Previous Version | Text Only | Print | Product List | Glossary On
Versions: 1 2 3 4 5 6 7 8 9 10 11 12 13 14 15 16 17 18 19 20 21 22 23 24 25 26 27 28 29 30 31 32 33 34 35 36 37 38 39 40 41 42 43 44 45 46 47 48 49 50
000
NZUS59 KLOT 261209
HRRLOT

CHICAGO AREA WEATHER ROUNDUP
NATIONAL WEATHER SERVICE CHICAGO/ROMEOVILLE IL
700 AM CDT SAT MAY 26 2018

NOTE: "FAIR" INDICATES FEW OR NO CLOUDS BELOW 12,000 FEET WITH NO
SIGNIFICANT WEATHER AND/OR OBSTRUCTIONS TO VISIBILITY.

* THESE STATIONS ARE NOT UNDER NWS QUALITY CONTROL. THEY ALSO MAY NOT
  REPORT WEATHER SUCH AS PRECIPITATION OR FOG.

ILZ005-006-012>014-019>023-261300-
NORTHEAST ILLINOIS

CITY           SKY/WX    TMP DP  RH WIND       PRES   REMARKS
OHARE          PTSUNNY   70  62  76 W8        29.76R
6HR MIN TEMP:  70; 6HR MAX TEMP:  74;

MIDWAY         PTSUNNY   71  68  90 SW9       29.77R
6HR MIN TEMP:  69; 6HR MAX TEMP:  73; 6HR PCP: TRACE;

AURORA           N/A     67  63  87 S5        29.78R
6HR MIN TEMP:  62; 6HR MAX TEMP:  70;

LANSING*         N/A     70  68  94 W6        29.79R
JOLIET*          N/A     69  67  93 SW5       29.79R
WAUKEGAN         N/A     70  60  70 W6        29.76R
6HR MIN TEMP:  67; 6HR MAX TEMP:  73;

DUPAGE AIRPORT PTSUNNY   68  63  84 SW6       29.78R
6HR MIN TEMP:  65; 6HR MAX TEMP:  71;

WHEELING         N/A     72  63  73 W6        29.78R
6HR MIN TEMP:  69; 6HR MAX TEMP:  74;

KANKAKEE*        N/A     68  68  98 S3        29.82R
MORRIS*          N/A     68  63  84 W6        29.78S
LEWIS AIRPORT*   N/A     69  66  92 W5        29.79R
NORTHERLY ISL    N/A     71  64  78 SW5         N/A
$$

WIZ051-052-058>065-066-070>072-261300-
SOUTHEAST WISCONSIN

CITY           SKY/WX    TMP DP  RH WIND       PRES   REMARKS
MILWAUKEE        N/A     71  60  68 W8        29.75R
6HR MIN TEMP:  68; 6HR MAX TEMP:  71;

KENOSHA*         N/A     68  60  75 W7        29.76R
RACINE*          N/A     69  61  75 W6        29.77R
BURLINGTON       N/A     67  60  77 W3        29.77R
WAUKESHA       SUNNY     66  57  72 W7        29.77R
WEST BEND        N/A     68  63  83 W8        29.75R
$$

INZ001>003-010>013-019-020-261300-
NORTHWEST INDIANA

CITY           SKY/WX    TMP DP  RH WIND       PRES   REMARKS
GARY*          NOT AVBL
MICHIGAN CITY* NOT AVBL
RENSSELAER*    NOT AVBL
VALPARAISO     PTSUNNY   70  67  90 S3        29.81R FOG
$$

LMZ740>746-261300-
SOUTHERN LAKE MICHIGAN

STATION/POSITION TIME  SKY/WX   TEMP WIND        PRES    VSBY
                                AIR  DIR/SP/G
                 (UTC)          (F)  (DEG/KT/KT) (MB)    (MI)
HARRISON CRIB    1140            70  240/  9/ 11   N/A
BURNHAM HARBOR   1200            71  200/  3/ 10   N/A
CALUMET HARBOR   1148            70  220/  5/  9 1007.7R
BURNS HARBOR     1140            69  190/  8/ 11 1009.1R
MICHIGAN CITY    1140            70  160/ 12/ 14   N/A
$$

ABBREVIATIONS USED IN REMARKS
   TC - TEMPERATURE IN CELSIUS
  WCI - WIND CHILL INDEX
   HX - HEAT INDEX
  VSB - VISIBILITY
$$



USA.gov is the U.S. government's official web portal to all federal, state and local government web resources and services.